Terminal Aerodrome Forecast
Issued by NWS

Home | Current Version | Previous Version | Text Only | Print | Product List | Glossary On
Versions: 1 2 3 4 5 6 7 8 9 10 11 12 13 14 15 16
000
FTUS42 TJSJ 210500
TAFJBQ
TAF
TJBQ 210521Z 2106/2206 12005KT P6SM FEW030
     FM211230 07015KT P6SM SCT030
     FM211900 08012G20KT P6SM VCTS SCT025CB BKN040
     FM212300 10005KT P6SM VCSH FEW025 SCT045
      AMD NOT SKED TIL 211100=

USA.gov is the U.S. government's official web portal to all federal, state and local government web resources and services.